Meridian, MS

4:55 AM CST on December 09, 2019 (GMT -0600)
Key

Weather History for KMEI - August, 2019

Change the Weather History Date:

Thursday, August 29, 2019

  Actual Average Record
Temperature  
Mean Temperature 80 °F 79 °F  
Max Temperature 93 °F 91 °F 106 °F (2000)
Min Temperature 68 °F 68 °F 51 °F (1891)
Degree Days  
Heating Degree Days 0 0  
Month to date heating degree days 0 0  
Since 1 June heating degree days 0 0  
Since 1 July heating degree days 0 0  
Cooling Degree Days 16 14  
Month to date cooling degree days 541 447  
Year to date cooling degree days 2056 1594  
Since 1 June cooling degree days 1560 1311  
Growing Degree Days 30 (Base 50)    
Moisture  
Dew Point 66 °F    
Average Humidity 68    
Maximum Humidity 90    
Minimum Humidity 39    
Precipitation  
Precipitation 0.00 in 0.11 in 1.84 in (2001)
Month to date precipitation 4.37 3.77  
Year to date precipitation 42.95 38.74  
Sea Level Pressure  
Sea Level Pressure 30.05 in    
Wind  
Wind Speed 3 mph ()    
Max Wind Speed 12 mph    
Max Gust Speed 14 mph    
Visibility 10.0 miles    
Events      
T = Trace of Precipitation, MM = Missing Value Source: Averaged Metar Reports

Daily Weather History Graph

Daily Weather History Graph

Search for Another Location

Airport or City:

Astronomy

Aug. 29, 2019 Rise Set
Actual Time 6:28 AM CDT 7:23 PM CDT
Civil Twilight 6:02 AM CDT 7:48 PM CDT
Nautical Twilight 5:33 AM CDT 8:18 PM CDT
Astronomical Twilight 5:02 AM CDT 8:48 PM CDT
Moon 5:20 AM CDT (8/29) 7:15 PM CDT (8/29)
Length of Visible Light 13h 45m
Length of Day
12h 55m
Waning Crescent, 1% of the Moon is Illuminated
Aug 29
Waning Crescent
Aug 30
New
Sep 5
First Quarter
Sep 13
Full
Sep 21
Last Quarter

Hourly Weather History & Observations

Time (CDT) Temp. Heat Index Dew Point Humidity Pressure Visibility Wind Dir Wind Speed Gust Speed Precip Events Conditions
12:58 AM 72.0 °F - 68.0 °F 87% 30.03 in 10.0 mi Calm Calm - N/A   Clear
1:58 AM 71.1 °F - 68.0 °F 90% 30.01 in 10.0 mi Calm Calm - N/A   Clear
2:58 AM 71.1 °F - 68.0 °F 90% 30.01 in 10.0 mi North 3.5 mph - N/A   Clear
3:58 AM 70.0 °F - 66.9 °F 90% 30.01 in 10.0 mi North 3.5 mph - N/A   Clear
4:58 AM 69.1 °F - 66.0 °F 90% 30.03 in 10.0 mi North 3.5 mph - N/A   Clear
5:58 AM 69.1 °F - 64.9 °F 87% 30.04 in 10.0 mi NNW 4.6 mph - N/A   Clear
6:58 AM 69.1 °F - 64.9 °F 87% 30.05 in 10.0 mi North 3.5 mph - N/A   Clear
7:58 AM 73.9 °F - 66.0 °F 76% 30.07 in 10.0 mi NE 5.8 mph - N/A   Clear
8:58 AM 78.1 °F - 64.9 °F 64% 30.09 in 10.0 mi NE 4.6 mph - N/A   Clear
9:58 AM 82.0 °F 83.4 °F 64.0 °F 54% 30.10 in 10.0 mi NE 4.6 mph - N/A   Clear
10:58 AM 84.9 °F 86.6 °F 64.9 °F 51% 30.11 in 10.0 mi Variable 4.6 mph - N/A   Clear
11:58 AM 87.1 °F 88.9 °F 64.9 °F 48% 30.09 in 9.0 mi Variable 3.5 mph - N/A   Clear
12:58 PM 88.0 °F 89.6 °F 64.9 °F 46% 30.08 in 10.0 mi East 6.9 mph - N/A   Clear
1:58 PM 89.1 °F 90.3 °F 64.0 °F 43% 30.06 in 10.0 mi NE 5.8 mph - N/A   Clear
2:58 PM 91.0 °F 92.6 °F 64.0 °F 41% 30.04 in 10.0 mi East 4.6 mph - N/A   Clear
3:58 PM 91.9 °F 93.3 °F 64.0 °F 39% 30.02 in 10.0 mi Calm Calm - N/A   Clear
4:58 PM 91.9 °F 93.3 °F 64.0 °F 39% 30.01 in 10.0 mi North 9.2 mph - N/A   Clear
5:58 PM 89.1 °F 90.0 °F 63.0 °F 42% 30.02 in 10.0 mi North 11.5 mph - N/A   Clear
6:58 PM 84.0 °F 85.4 °F 64.0 °F 51% 30.02 in 10.0 mi North 8.1 mph - N/A   Clear
7:58 PM 77.0 °F - 69.1 °F 76% 30.04 in 10.0 mi Calm Calm - N/A   Clear
8:58 PM 73.9 °F - 68.0 °F 82% 30.04 in 10.0 mi Calm Calm - N/A   Clear
9:58 PM 72.0 °F - 68.0 °F 87% 30.06 in 10.0 mi Calm Calm - N/A   Clear
10:58 PM 70.0 °F - 66.9 °F 90% 30.06 in 10.0 mi Calm Calm - N/A   Clear
11:58 PM 69.1 °F - 64.9 °F 87% 30.06 in 10.0 mi Calm Calm - N/A   Clear